Location: Hackbridge
(51.3833°N, 0.1500°W)
Time: 21:33:06
(UTC+00:00)

ADEOS Rocket - Pass Details

Date: 13 October 2019
Orbit: 859 x 1306 km, 98.7° (Epoch: 19 November)

Event Time Altitude Azimuth Distance (km) Brightness Sun altitude
Rises 19:09:10 0° 17° (NNE) 4,307 6.3 -18.9°
Reaches altitude 10° 19:12:05 10° 24° (NNE) 3,338 5.7 -19.4°
Maximum altitude 19:19:30 45° 95° (E) 1,702 3.8 -20.5°
Drops below altitude 10° 19:26:34 10° 166° (SSE) 3,189 5.4 -21.6°
Sets 19:29:17 0° 173° (S) 4,100 6.0 -22.0°
